Regional Weather Roundup
Issued by NWS

Home | Current Version | Previous Version | Text Only | Print | Product List | Glossary On
Versions: 1 2 3 4 5 6 7 8 9 10 11 12 13 14 15 16 17 18 19 20 21 22 23 24 25 26 27 28 29 30 31 32 33 34 35 36 37 38 39 40 41 42 43 44 45 46 47 48 49 50
000
ASUS44 KEWX 232203
RWRTX
SOUTH TEXAS REGIONAL WEATHER ROUNDUP
NATIONAL WEATHER SERVICE AUSTIN/SAN ANTONIO TX
500 PM CDT THU MAR 23 2017

NOTE: "FAIR" INDICATED FEW OR NO CLOUDS BELOW 12,000 FEET WITH NO
SIGNIFICANT WEATHER AND/OR OBSTRUCTIONS TO VISIBILITY.

* - THESE STATIONS ARE NOT NWS OR FAA STATIONS...AND ARE NOT SUBJECT
    TO NWS AND FAA QUALITY CONTROL.

TXZ171-172-183>190-232300-
TEXAS HILL COUNTRY AND EDWARDS PLATEAU

CITY           SKY/WX    TMP DP  RH WIND       PRES   REMARKS
JUNCTION       SUNNY     81  51  35 S18G40    29.88F
*LLANO         SUNNY     84  52  32 S18G28    29.94F
BURNET         SUNNY     82  44  26 SE17G35   29.94F
*HORSESHOE BAY SUNNY     83  48  29 S16G31    29.92F
*KERRVILLE     CLOUDY    79  57  47 S29       29.94F
*FREDERICKSBRG SUNNY     78  49  35 S23G31    29.94F
*ROCKSPRINGS   MOSUNNY   75  57  53 S24G36    29.94F
*BOERNE STAGE  MOSUNNY   77  50  38 S22G31    29.96F
*CASTROVILLE   MOSUNNY   82  52  35 SE24G32   29.94F
HONDO          CLOUDY    84  56  38 SE23G30   29.92F
*UVALDE        CLOUDY    82  57  43 SE16G25   29.91F
DEL RIO        MOSUNNY   83  57  41 SE21G33   29.82F
LAUGHLIN AFB   NOT AVBL
CARRIZO SPRGS  MOSUNNY   86  55  35 S21G30    29.86F
*EAGLE PASS    CLEAR     86  57  37 SE14G21   29.85F
$$

TXZ173-191>194-202-209-217>225-228-232300-
CENTRAL AND SOUTH CENTRAL TEXAS

CITY           SKY/WX    TMP DP  RH WIND       PRES   REMARKS
GEORGETOWN     SUNNY     82  45  26 SE24G31   29.93F
AUSTIN/BERGSTM MOSUNNY   84  47  27 SE28G36   29.94F
AUSTIN/MABRY     N/A     83  43  24 S10G38    29.96F
*AUSTIN/EXEC   SUNNY     82  48  30 S17G31    29.96F
*LAGO VISTA    SUNNY     82  46  27 S15G33    29.95F
SAN MARCOS     SUNNY     82  48  30 SE26G35   29.97F
NEW BRAUNFELS  MOSUNNY   84  44  24 S26G38    29.94F
RANDOLPH AFB   MOSUNNY   80  49  33 S25G33    29.95F
PT SAN ANTONIO MOSUNNY   79  53  40 SE22G35   29.92F
SAN ANTONIO    PTSUNNY   80  47  31 SE29G40   29.95F
STINSON FIELD  MOSUNNY   84  45  25 SE24G32   29.92F
*PLEASANTON    MOSUNNY   83  53  35 SE17G30   29.93F
*LA GRANGE     SUNNY     83  54  36 S17G28    29.98F
*GIDDINGS      SUNNY     82  48  30 S18G28    29.99F
*GONZALES      SUNNY     83  48  29 S24G39    29.97F
$$

TXZ163>164-176>182-195>201-210>213-226-227-235-232300-
SOUTHEAST TEXAS

CITY           SKY/WX    TMP DP  RH WIND       PRES   REMARKS
COLLEGE STN    SUNNY     85  46  25 S28G38    29.98F
*BRYAN         SUNNY     83  49  30 S16G26    30.00F
*CALDWELL      NOT AVBL
*CROCKETT      MOSUNNY   84  50  30 S18G29    30.04F
*BRENHAM       SUNNY     84  47  26 SE21G29   30.01F
HUNTSVILLE     SUNNY     85  41  21 S21G32    30.02F
CONROE         SUNNY     84  55  36 S20G28    30.03F
HOUSTON BUSH   MOSUNNY   83  54  36 S18G28    30.05F
HOUSTON HOBBY  MOSUNNY   80  55  42 S17G26    30.06F
*HOUSTON SW AP SUNNY     79  60  51 SE14G24   30.07F
PEARLAND       SUNNY     81  57  43 SE15      30.08F
HOUSTON HOOKS  SUNNY     84  45  25 S14G25    30.03F
ELLINGTON FLD  MOSUNNY   79  57  47 SE17      30.09F
SUGAR LAND     SUNNY     84  55  36 SE21G26   30.04F
*HOUSTON EXEC  SUNNY     84  50  30 S18G26    30.04F
*CLEVELAND MUN SUNNY     82  46  28 S17G26    30.07S
*WHARTON       SUNNY     81  52  36 SE21      30.05F
*COLUMBUS      FAIR      81  49  32 S18G30    30.03F
*EAGLE LAKE    CLEAR     82  52  35 S22G29    30.03F
$$

TXZ214>216-236>238-232300-
THE UPPER TEXAS COAST

CITY           SKY/WX    TMP DP  RH WIND       PRES   REMARKS
*ORANGE        SUNNY     79  60  52 S10G16    30.12F
PORT ARTHUR    SUNNY     81  55  40 S13       30.10F
GALVESTON      MOSUNNY   77  68  73 SE16      30.10F
ANGLETON       MOSUNNY   78  64  61 S15G26    30.08F
*BAY CITY      MOSUNNY   79  64  61 SE15G22   30.06F
PALACIOS       SUNNY     77  65  66 SE21G26   30.05F
$$

TXZ229>234-239>247-232300-
TEXAS COASTAL BEND AND RIO GRANDE PLAINS

CITY           SKY/WX    TMP DP  RH WIND       PRES   REMARKS
VICTORIA       SUNNY     81  59  47 S24       30.02F
*BEEVILLE      SUNNY     82  62  50 SE24G36   29.97F
ROCKPORT       MOSUNNY   79  66  64 SE20G31   30.01F
*PORT ARANSAS  SUNNY     75  66  74 SE17G23   30.01F
*PORT LAVACA   MOSUNNY   78  67  69 SE21G30   30.04F
*INGLESIDE     MOSUNNY   79  67  68 SE25G32   30.00F
CORPUS CHRISTI MOSUNNY   79  64  60 SE29G41   29.99F
CORPUS NAS     NOT AVBL
*ROBSTOWN      SUNNY     83  61  47 SE28G36   29.98F
ALICE          SUNNY     84  60  44 SE26G39   29.93F
KINGSVILLE NAS MOSUNNY   83  65  54 SE26G38   29.95F
COTULLA        MOSUNNY   87  56  34 SE22G35   29.89F
*FAITH RANCH   SUNNY     88  57  35 SE21G30   29.86F
LAREDO         MOSUNNY   86  59  39 SE25G35   29.86F
$$

TXZ248>255-232300-
DEEP SOUTH TEXAS

CITY           SKY/WX    TMP DP  RH WIND       PRES   REMARKS
BROWNSVILLE    MOSUNNY   80  65  59 SE23G35   29.99F
PORT ISABEL    SUNNY     81  65  58 SE24G35   29.98F
*SOUTH PADRE   NOT AVBL
HARLINGEN      MOSUNNY   82  63  52 SE25G36   29.96F
*HEBBRONVILLE  SUNNY     83  55  38 S20G32    29.91F
MCALLEN        MOSUNNY   86  63  45 SE25G35   29.93F
*WESLACO       MOSUNNY   82  62  50 S25G32    29.94F
FALFURRIAS     SUNNY     86  54  33 SE23G29   29.93F
EDINBURG       SUNNY     85  57  38 SE23G31   29.94F
*ZAPATA        MOSUNNY   86  56  36 SE18G32   29.86F
$$

TXZ213>215-236>238-242>244-246-247-251-254-255-232300-
CMAN STATIONS

STATION/POSITION TIME  TEMP    WIND        PRES    WAVE
                       AIR SEA DIR/SP/G            HT/PER
                 (UTC) (F)     (DEG/KT/KT) (MB)    (FT/S)
SABINE PASS      2130   72 74  150/ 11/ 14 1021.4
SEA RIM ST PARK  2100   73     140/ 10/ 12 1020.6
NORTH JETTY/GLS  2130   76 70  130/ 16/ 18   N/A
EAGLE POINT      2130   72 77  150/ 16/ 18 1019.0
MORGANS POINT    2130   75 72  140/  8/ 16 1019.1
MISSION/ARANSAS  2100   74                 1018.0
PORT O`CONNOR    2130   73     140/ 16/ 19 1017.4
PORT ARANSAS     2100   72 73  130/ 17/ 19 1017.3
MALAQUITE BEACH  2130   72 72  120/ 18/ 19 1016.8
BAFFIN BAY       2130   74 83  110/ 16/ 22 1016.1
PORT ISABEL      2130   76 73  150/ 19/ 28 1015.9
$$

GMZ080-GMZ150>470-232300-
OFFSHORE BUOY REPORTS

STATION/POSITION TIME  TEMP    WIND        PRES    WAVE
                       AIR SEA DIR/SP/G            HT/PER
                 (UTC) (F)     (DEG/KT/KT) (MB)    (FT/S)
20 E GALVESTON   2050   72 74  140/ 14/ 16 1019.6    2/ 6
90 E PT ARANSAS  2050   74 73  130/ 16/ 19 1018.8    4/ 6
35 NE PT MANSFLD 2050   73     150/ 16/ 17 1016.8    4/ 6
200 E PT ISABEL  2050   75 77  140/ 16/ 17 1019.8    3/ 4
$$




USA.gov is the U.S. government's official web portal to all federal, state and local government web resources and services.